sat.trackr.live / text

‹ back to catalog

QIANFAN-20

NORAD 61553 · 2024-185B

PAYLOAD ACTIVE UNKNOWN

§ Identity

Operator
Country
PRC
Launch date
2024-10-15
Launch site
TAISC
Launch vehicle
Mass (kg)
RCS (m²)

External: N2YO · Heavens-Above · Gunter

§ Orbital elements

Epoch: 2026-09-22T19:57:03.673728Z

Period
102.19 min
Inclination
88.9855°
Eccentricity
0.0006877
Mean motion
14.09074732 rev/d
Perigee alt
857.6 km
Apogee alt
867.5 km
Semi-major
7,240.7 km
B*
2.2250e-4
RAAN
45.9991°
Arg perigee
141.3372°
Mean anomaly
218.8305°
Rev number
10,949

§ Raw data

QIANFAN-201 61553U 24185B   26265.83129252  .00000400  00000+0  22250-3 0  99902 61553  88.9855  45.9991 0006877 141.3372 218.8305 14.09074732109498

JSON: /api/v1/satellites/61553 · /tle

For live sub-satellite position, see the globe view (requires WebGL).

§ Visibility from observer

Set your observer location to see the next 7 days of passes ≥ 10°. The values pass through the URL so the page stays shareable.

No JS? Fill the form by hand. The geolocation button needs JavaScript.